[[{"header":{"parameterUnit":"m.s-1","parameterCategory":1,"la1":30.2991,"la2":30.254,"lo1":-89.0895,"lo2":-89.0444,"dy":0.0017,"dx":0.0017,"nx":28,"ny":28,"refTime":"2024-04-28T21:00:00:Z","depth":0,"parameterNumber":2,"parameterNumberName":"U-component_of_WINDS"},"data":[0,0,0,0,0,0,0,0,0,0,0,0,0,0,0,0,0,0,0,0,0,0,0,0,0,0,0,0,0,0,0,0,0,0,0,0,0,0,0,0,0,0,0,0,0,0,0,0,0,0,0,0,0,0,0,0,0,0,0.6119,0.6119,0,0.6104,0.6103,0.6103,0.6098,0.6098,0.6098,0.6098,0.6082,0.6081,0.6081,0,0,0,0,0,0,0,0,0,0,0,0,0,0.6142,0.6142,0.6119,0.6119,0.6119,0.6104,0.6103,0.6103,0.6098,0.6098,0.6098,0.6098,0.6082,0.6081,0.6081,0,0,0,0,0,0,0,0,0,0,0,0,0,0.613,0.6142,0.6119,0.6114,0.6114,0.6104,0.6103,0.6103,0.6098,0.6098,0.6098,0.6098,0.6082,0.6081,0.6081,0.6074,0,0,0.6078,0.6078,0,0,0,0,0,0,0,0,0.6131,0.6129,0.6115,0.6114,0.6114,0.6103,0.6106,0.6093,0.6098,0.6104,0.6098,0.6098,0.6089,0.6087,0.6084,0.6073,0.6073,0.6078,0.6078,0.6077,0.6077,0,0,0,0,0,0,0,0.6132,0.613,0.6113,0.6115,0.6114,0.6112,0.6111,0.6103,0.6096,0.6103,0.6103,0.6101,0.6088,0.6085,0.6084,0.6072,0.6078,0.6078,0.6077,0.6077,0.6055,0.6055,0,0,0,0,0,0,0.6133,0.6131,0.6113,0.6112,0.6123,0.6112,0.611,0.6106,0.6096,0.6094,0.6101,0.6101,0.6086,0.6085,0.6083,0.6075,0.6077,0.6077,0.6076,0.6055,0.6055,0.6055,0,0,0,0,0,0,0.6134,0.6132,0.6114,0.6121,0.6119,0.6111,0.6107,0.6106,0.6103,0.6094,0.6093,0.6099,0.6086,0.6084,0.6076,0.6074,0.6076,0.6076,0.6055,0.6055,0.6055,0.6058,0,0,0,0,0,0,0.6135,0.6132,0.613,0.6121,0.6119,0.6108,0.6107,0.6105,0.6101,0.6101,0.6092,0.6091,0.6086,0.6077,0.6076,0.6073,0.6075,0.6055,0.6055,0.6055,0.6058,0.6058,0.6057,0,0,0,0,0,0.6136,0.6131,0.613,0.6128,0.6116,0.6108,0.6106,0.6101,0.6101,0.6099,0.6093,0.6091,0.6075,0.6077,0.6075,0.6072,0.6056,0.6055,0.6055,0.6058,0.6058,0.6057,0,0,0,0,0,0,0.614,0.613,0.6128,0.6121,0.6115,0.6107,0.6104,0.6101,0.6095,0.6095,0.6088,0.6086,0.6079,0.6075,0.6077,0.6065,0.6065,0.6064,0.6068,0.6068,0.6067,0.6068,0.6075,0,0,0,0,0,0.614,0.6134,0.6126,0.6121,0.6118,0.6111,0.6108,0.6104,0.6098,0.6095,0.6089,0.6082,0.6076,0.6071,0.6065,0.6057,0.6055,0.6054,0.6054,0.6054,0.6053,0.6048,0.6047,0.6054,0.6054,0.6054,0,0,0.614,0.6134,0.6131,0.6122,0.6116,0.6111,0.6109,0.6103,0.6098,0.6094,0.6086,0.6081,0.6074,0.6066,0.6062,0.6062,0.6051,0.6053,0.6053,0.6053,0.6048,0.6047,0.6047,0.6054,0.6054,0.6054,0,0,0.6137,0.6133,0.6127,0.6122,0.6115,0.611,0.6109,0.61,0.6097,0.6089,0.6086,0.608,0.6069,0.6063,0.6059,0.6053,0.6051,0.6051,0.605,0.6046,0.6045,0.6045,0.6042,0.6041,0.6051,0.6051,0.6051,0,0.6138,0.613,0.6125,0.6119,0.6114,0.611,0.6104,0.61,0.609,0.6087,0.6087,0.6073,0.6067,0.6058,0.6056,0.6053,0.6051,0.6052,0.6046,0.6045,0.6045,0.6042,0.6041,0.6051,0.6051,0.6051,0.6051,0,0.6131,0.6125,0.6122,0.6113,0.6108,0.6102,0.6096,0.6092,0.6089,0.6084,0.6076,0.6069,0.6061,0.6058,0.6055,0.6048,0.6048,0.6047,0.6047,0.6044,0.6042,0.6041,0.6051,0.6051,0.6051,0.6051,0,0,0.6131,0.6119,0.6118,0.6113,0.6105,0.61,0.6093,0.6085,0.6082,0.6075,0.6069,0.606,0.6058,0.6054,0.605,0.6046,0.6041,0.6045,0.6045,0.6044,0.6032,0.6032,0.6032,0.6039,0.6039,0.6039,0.6032,0,0.6127,0.6116,0.6111,0.6102,0.6096,0.6091,0.6086,0.6079,0.6075,0.6069,0.6063,0.6056,0.6056,0.6053,0.6048,0.6043,0.6038,0.6043,0.6033,0.6033,0.6035,0.603,0.6031,0.6025,0.6032,0.6031,0.6031,0,0.612,0.6114,0.6104,0.6096,0.6093,0.6088,0.608,0.6074,0.6067,0.6064,0.6058,0.6054,0.6047,0.6048,0.6037,0.604,0.6036,0.6033,0.6032,0.6031,0.6032,0.6028,0.6023,0.6022,0.603,0.603,0.603,0,0.612,0.6109,0.6102,0.6098,0.6088,0.6085,0.608,0.6073,0.6068,0.6061,0.6058,0.605,0.6046,0.6039,0.6033,0.6035,0.6023,0.6024,0.602,0.602,0.6017,0.6018,0.6011,0.6015,0.6015,0.6015,0.6015,0,0.6116,0.611,0.6102,0.6097,0.609,0.6085,0.6078,0.6073,0.6066,0.606,0.6056,0.6051,0.6043,0.6037,0.6032,0.6023,0.6022,0.6018,0.6017,0.6019,0.6019,0.6015,0.6016,0.6015,0.6015,0.6015,0.6015,0,0.6115,0.6109,0.6101,0.6092,0.609,0.6085,0.6077,0.6072,0.6067,0.6059,0.6057,0.6049,0.6041,0.6035,0.6024,0.6021,0.6012,0.6011,0.6014,0.6014,0.601,0.601,0.6001,0.5999,0.6005,0.6005,0.6005,0,0.6113,0.6108,0.6099,0.6094,0.609,0.6083,0.6078,0.6072,0.6067,0.6058,0.6054,0.6046,0.6039,0.6026,0.6019,0.601,0.6009,0.6006,0.6007,0.6009,0.6008,0.6008,0.6007,0.6006,0.6006,0.6006,0.6006,0,0.6109,0.6106,0.6099,0.6092,0.6086,0.6079,0.6073,0.607,0.6062,0.6057,0.6048,0.6043,0.6032,0.6023,0.6014,0.6009,0.6006,0.6005,0.6004,0.6005,0.6007,0.6005,0.6013,0.6005,0.6005,0.6005,0.6005,0.6005,0.6107,0.6102,0.6095,0.6087,0.6081,0.6075,0.607,0.6064,0.6057,0.6048,0.6045,0.6036,0.6028,0.6015,0.601,0.6003,0.6002,0.6001,0.6,0.5999,0.5999,0.6009,0.6001,0.6001,0.6001,0.6001,0.6001,0,0.6102,0.6097,0.609,0.6081,0.6075,0.6073,0.6065,0.606,0.6052,0.6045,0.6038,0.6028,0.602,0.6012,0.6003,0.5999,0.5997,0.5996,0.5996,0.5995,0.6,0.6002,0.5998,0.5998,0.5998,0.5998,0.5998,0.5998,0.6099,0.6091,0.6087,0.6076,0.6071,0.6062,0.6058,0.6052,0.6046,0.6035,0.6028,0.6023,0.6016,0.6006,0.5998,0.5996,0.5992,0.5992,0.599,0.5994,0.5995,0.5995,0.5997,0.5992,0.5992,0.5985,0.5985,0.5985]},{"header":{"parameterUnit":"m.s-1","parameterCategory":1,"la1":30.2991,"la2":30.254,"lo1":-89.0895,"lo2":-89.0444,"dy":0.0017,"dx":0.0017,"nx":28,"ny":28,"refTime":"2024-04-28T21:00:00:Z","depth":0,"parameterNumber":3,"parameterNumberName":"V-component_of_WINDS"},"data":[0,0,0,0,0,0,0,0,0,0,0,0,0,0,0,0,0,0,0,0,0,0,0,0,0,0,0,0,0,0,0,0,0,0,0,0,0,0,0,0,0,0,0,0,0,0,0,0,0,0,0,0,0,0,0,0,0,0,3.4608,3.4608,0,3.4674,3.4675,3.4675,3.4692,3.4691,3.4691,3.469,3.4751,3.4753,3.4755,0,0,0,0,0,0,0,0,0,0,0,0,0,3.4487,3.4489,3.4607,3.4608,3.4609,3.4674,3.4675,3.4676,3.4692,3.4691,3.4691,3.469,3.475,3.4753,3.4755,0,0,0,0,0,0,0,0,0,0,0,0,0,3.4545,3.449,3.4607,3.4625,3.4627,3.4674,3.4675,3.4676,3.4692,3.4691,3.469,3.469,3.475,3.4753,3.4756,3.4787,0,0,3.4765,3.4766,0,0,0,0,0,0,0,0,3.4542,3.4549,3.4622,3.4624,3.4627,3.4674,3.4655,3.4713,3.4692,3.4667,3.469,3.469,3.4725,3.473,3.4744,3.4789,3.4792,3.4765,3.4767,3.4768,3.4769,0,0,0,0,0,0,0,3.4538,3.4546,3.4634,3.4623,3.4626,3.4627,3.4635,3.4666,3.4699,3.4669,3.4671,3.4679,3.4727,3.4741,3.4746,3.4793,3.4765,3.4768,3.4769,3.4771,3.4867,3.4868,0,0,0,0,0,0,3.4531,3.4543,3.4631,3.4636,3.4582,3.463,3.4638,3.4659,3.4698,3.4704,3.4679,3.4679,3.4736,3.4742,3.4748,3.4787,3.4768,3.4771,3.4773,3.4866,3.4867,3.4868,0,0,0,0,0,0,3.4529,3.4539,3.4629,3.459,3.4601,3.4633,3.4656,3.4661,3.4676,3.4706,3.4711,3.4688,3.4736,3.4743,3.4777,3.479,3.4772,3.4775,3.4865,3.4867,3.4868,3.4867,0,0,0,0,0,0,3.4525,3.4538,3.4552,3.459,3.4603,3.466,3.4657,3.4663,3.4682,3.4682,3.4716,3.4721,3.4736,3.4773,3.478,3.4794,3.4777,3.4864,3.4866,3.4867,3.4866,3.4867,3.4869,0,0,0,0,0,3.4521,3.4547,3.4553,3.4563,3.4622,3.466,3.4668,3.4687,3.4682,3.4696,3.4715,3.472,3.4787,3.4776,3.4785,3.4799,3.4864,3.4865,3.4867,3.4865,3.4867,3.4869,0,0,0,0,0,0,3.4507,3.4553,3.4559,3.4599,3.4626,3.4663,3.468,3.4688,3.4715,3.4714,3.4734,3.4741,3.4774,3.4789,3.4777,3.4831,3.4825,3.4828,3.482,3.4823,3.4824,3.482,3.478,0,0,0,0,0,3.451,3.454,3.4576,3.4608,3.4621,3.4648,3.4666,3.4678,3.4706,3.4717,3.4738,3.4763,3.479,3.4807,3.4833,3.4867,3.4875,3.4881,3.4883,3.4884,3.4887,3.4907,3.491,3.4874,3.4874,3.4874,0,0,3.4513,3.4542,3.4559,3.4606,3.4628,3.4657,3.4658,3.4688,3.4709,3.472,3.4755,3.4771,3.48,3.4835,3.4851,3.4848,3.4899,3.4886,3.4887,3.489,3.4909,3.4912,3.4915,3.4875,3.4875,3.4874,0,0,3.4536,3.456,3.459,3.4613,3.4648,3.4665,3.4672,3.4708,3.4721,3.4756,3.4765,3.4789,3.4834,3.4855,3.4871,3.49,3.4906,3.4908,3.4917,3.4936,3.4939,3.4941,3.4953,3.4956,3.491,3.491,3.491,0,3.4536,3.4582,3.4603,3.4634,3.4654,3.4668,3.4697,3.4717,3.4757,3.4769,3.4767,3.4825,3.4844,3.4884,3.4892,3.4904,3.4912,3.4905,3.4937,3.494,3.4943,3.4953,3.4957,3.491,3.491,3.491,3.491,0,3.458,3.4611,3.4631,3.4673,3.4694,3.4723,3.4748,3.4766,3.4776,3.4794,3.4829,3.4853,3.4885,3.4895,3.4904,3.4936,3.4934,3.4933,3.4928,3.4946,3.4956,3.4961,3.4911,3.4911,3.4911,3.4911,0,0,3.4596,3.4651,3.4657,3.4677,3.4716,3.4739,3.4768,3.4802,3.4818,3.4844,3.4868,3.4906,3.4907,3.4925,3.4936,3.4953,3.4975,3.4951,3.4952,3.4955,3.5012,3.5013,3.5017,3.4978,3.4979,3.498,3.501,0,3.4624,3.4681,3.4701,3.4746,3.4775,3.4788,3.4813,3.4838,3.4855,3.488,3.4897,3.4924,3.4923,3.4934,3.4951,3.4969,3.4987,3.4967,3.5,3.5001,3.4994,3.5023,3.5023,3.5051,3.5014,3.5015,3.5015,0,3.4665,3.4695,3.4744,3.478,3.4793,3.4816,3.4848,3.4872,3.49,3.4911,3.4932,3.4942,3.4971,3.4963,3.5002,3.4988,3.5002,3.5013,3.5014,3.5019,3.501,3.5029,3.506,3.5064,3.5022,3.5021,3.5021,0,3.4673,3.4726,3.4762,3.4778,3.4821,3.4836,3.4854,3.4882,3.4901,3.4928,3.494,3.4969,3.4985,3.5006,3.5023,3.5015,3.506,3.5054,3.5069,3.5069,3.5079,3.5079,3.5114,3.5086,3.5086,3.5086,3.5086,0,3.4703,3.4733,3.4767,3.4789,3.4822,3.4844,3.4875,3.4893,3.4917,3.4942,3.4953,3.4976,3.4996,3.502,3.5033,3.5064,3.507,3.5079,3.5082,3.5079,3.5078,3.5089,3.5088,3.5087,3.5087,3.5087,3.5087,0,3.4719,3.4743,3.4784,3.4821,3.4831,3.4854,3.4885,3.4906,3.4923,3.4954,3.4962,3.4988,3.5017,3.5036,3.5072,3.508,3.5114,3.5116,3.5106,3.5108,3.5123,3.5121,3.5167,3.5174,3.5141,3.5142,3.5142,0,3.4737,3.4761,3.4801,3.482,3.4839,3.4868,3.4889,3.4909,3.4929,3.4963,3.498,3.501,3.5036,3.5081,3.5102,3.5129,3.5133,3.5147,3.5137,3.5133,3.5134,3.5133,3.5135,3.5149,3.5149,3.5149,3.5149,0,3.4767,3.4778,3.4808,3.4842,3.4867,3.4894,3.492,3.4934,3.4959,3.498,3.5012,3.5032,3.507,3.51,3.5129,3.5145,3.5151,3.5152,3.5158,3.5155,3.5149,3.5153,3.5111,3.5151,3.5151,3.5151,3.5151,3.5151,3.4785,3.4807,3.484,3.4873,3.4895,3.492,3.4943,3.4963,3.4991,3.5025,3.5035,3.5067,3.5094,3.5135,3.5151,3.5175,3.5173,3.518,3.5182,3.5184,3.5185,3.5144,3.518,3.518,3.518,3.518,3.518,0,3.4817,3.4839,3.4869,3.4908,3.4933,3.4939,3.4968,3.4988,3.5018,3.5043,3.5069,3.5105,3.5133,3.5156,3.5185,3.52,3.5204,3.5207,3.5207,3.521,3.5185,3.5178,3.5204,3.5204,3.5204,3.5204,3.5204,3.5204,3.4836,3.4874,3.4889,3.4937,3.4958,3.4992,3.5009,3.5031,3.5052,3.5092,3.5117,3.5133,3.5157,3.5188,3.5213,3.5219,3.523,3.5233,3.5239,3.5215,3.5212,3.521,3.5203,3.5235,3.5235,3.5263,3.5263,3.5263]}]]